Regional Weather Roundup
Issued by NWS

Home | Current Version | Previous Version | Graphics & Text | Print | Product List | Glossary On
Versions: 1 2 3 4 5 6 7 8 9 10 11 12 13 14 15 16 17 18 19 20 21 22 23 24 25 26 27 28 29 30 31 32 33 34 35 36 37 38 39 40 41 42 43 44 45 46 47 48 49 50
000
ASUS43 KTOP 272008
RWRKS

WEATHER ROUNDUP FOR KANSAS
NATIONAL WEATHER SERVICE GOODLAND KS
300 PM CDT WED JUL 27 2016

NOTE:  "FAIR" INDICATES FEW OR NO CLOUDS BELOW 12,000 FEET WITH NO
SIGNIFICANT WEATHER AND/OR OBSTRUCTIONS TO VISIBILITY.

KSZ001>006-013>018-027>032-041>047-272100-
NORTHWEST KANSAS

CITY           SKY/WX    TMP DP  RH WIND       PRES   REMARKS
GOODLAND       SUNNY     89  61  38 SE13G18   30.09F
HAYS           SUNNY     90  66  45 E6        30.01F
HILL CITY      LGT RAIN  79  72  79 E7        30.03F
RUSSELL        PTSUNNY   90  66  45 NE6       30.00F
$$

KSZ061>065-074>080-084>089-272100-
SOUTHWEST KANSAS

CITY           SKY/WX    TMP DP  RH WIND       PRES   REMARKS
DODGE CITY     SUNNY     91  65  41 SW7       30.02F
ELKHART          N/A     95  67  39 SE5         N/A  HX  99
GARDEN CITY    SUNNY     90  68  48 VRB3      30.03F
GREAT BEND     SUNNY     88  70  55 SW5       29.99F
LIBERAL        SUNNY     93  64  38 S5        30.03S HX  95
PRATT          MOSUNNY   88  67  48 N7        30.00F
$$

KSZ066>073-081>083-090>101-272100-
SOUTHEAST KANSAS

CITY           SKY/WX    TMP DP  RH WIND       PRES   REMARKS
CHANUTE        MOSUNNY   89  73  59 N5        29.96F HX  97
COFFEYVILLE    MOSUNNY   88  74  63 CALM      29.95F HX  96
HUTCHINSON     CLOUDY    93  72  50 N8        29.99F HX 101
MEDICINE LODGE   N/A     95  66  38 E9        29.96F HX  98
NEWTON         MOSUNNY   86  72  62 CALM      30.00F
PARSONS        MOSUNNY   91  74  57 N5        29.97F HX 100
WICHITA INTL   MOSUNNY   93  69  45 CALM      29.97F HX  98
WICHITA JABRA  MOSUNNY   91  73  55 VRB5      29.98F HX  99
WICHITA MCCONL MOSUNNY   90  71  53 VRB3      29.98F HX  96
WINFIELD       SUNNY     92  71  50 NE8       29.97F HX  98
$$

KSZ007>012-019>026-033>040-048>060-102>105-272100-
NORTHEAST KANSAS

CITY           SKY/WX    TMP DP  RH WIND       PRES   REMARKS
CONCORDIA      MOSUNNY   85  69  58 SW6       30.01F
EMPORIA        MOSUNNY   90  69  50 CALM      29.97F
LAWRENCE       MOSUNNY   92  63  38 VRB3      29.95F
MANHATTAN      PTSUNNY   88  72  58 E5        29.98F
MARYSVILLE     CLOUDY    88  68  51 W3        29.99F
OLATHE IND     SUNNY     91  65  41 VRB6      29.97F
OLATHE EXE     MOSUNNY   92  64  39 VRB3      29.97F
SALINA         MOSUNNY   92  70  48 VRB6      29.99F HX  97
TOPEKA BILLARD CLOUDY    90  68  48 NE5       29.96F
TOPEKA FORBES  MOSUNNY   92  71  50 NE5       29.97F HX  98
$$



USA.gov is the U.S. government's official web portal to all federal, state and local government web resources and services.